SHT4H EGAC-EGLL

Flight info

Callsign SHT4H
Flight time 0h 54m
Altitude 33000
Route DUFFY L10 RINGA Q39 BABGU DCT ETIGA DCT INKOB Q39 NOMSU UQ4 WAL UY53 NUGRA
Aircraft A20N/M-SDE2E3FGHIRWXY/LB1

Departure

Time 2026-05-03 20:48
Airport George Best Belfast City Airport (EGAC)

Arrival

Time 2026-05-03 21:42
Airport London Heathrow Airport (EGLL)
Time Latitude Longitude Altitude Speed Heading
2026-05-03 20:21 54.61569 -5.87055 26 ft 0 kts 125°
2026-05-03 20:40 54.61569 -5.87056 26 ft 1 kts 125°
2026-05-03 20:40 54.61577 -5.87075 26 ft 2 kts 125°
2026-05-03 20:40 54.61587 -5.87099 26 ft 2 kts 125°
2026-05-03 20:40 54.61597 -5.87119 26 ft 2 kts 152°
2026-05-03 20:41 54.61613 -5.87122 26 ft 2 kts 199°
2026-05-03 20:41 54.61618 -5.87119 26 ft 0 kts 215°
2026-05-03 20:44 54.61616 -5.87121 26 ft 3 kts 215°
2026-05-03 20:45 54.61563 -5.87185 26 ft 13 kts 215°
2026-05-03 20:45 54.61487 -5.87276 26 ft 13 kts 214°
2026-05-03 20:45 54.61417 -5.87367 26 ft 13 kts 229°
2026-05-03 20:45 54.61358 -5.87474 30 ft 12 kts 215°
2026-05-03 20:46 54.61288 -5.87557 30 ft 12 kts 214°
2026-05-03 20:46 54.61220 -5.87640 28 ft 12 kts 215°
2026-05-03 20:46 54.61151 -5.87723 27 ft 12 kts 214°
2026-05-03 20:46 54.61088 -5.87811 26 ft 11 kts 240°
2026-05-03 20:47 54.61097 -5.87934 26 ft 11 kts 303°
2026-05-03 20:47 54.61151 -5.88021 25 ft 10 kts 355°
2026-05-03 20:47 54.61212 -5.87963 26 ft 14 kts 35°
2026-05-03 20:47 54.61472 -5.87653 23 ft 81 kts 34°
2026-05-03 20:48 54.62127 -5.86871 108 ft 138 kts 34°
2026-05-03 20:48 54.62950 -5.85882 753 ft 148 kts 34°
2026-05-03 20:48 54.63778 -5.84894 1705 ft 141 kts 34°
2026-05-03 20:48 54.64643 -5.83862 2278 ft 166 kts 31°
2026-05-03 20:49 54.65746 -5.82781 2675 ft 194 kts 30°
2026-05-03 20:49 54.66837 -5.81277 3302 ft 207 kts 47°
2026-05-03 20:49 54.67544 -5.79007 3853 ft 228 kts 73°
2026-05-03 20:49 54.67634 -5.76120 4317 ft 253 kts 97°
2026-05-03 20:50 54.67085 -5.73169 5119 ft 265 kts 117°
2026-05-03 20:50 54.65887 -5.70705 5729 ft 273 kts 141°
2026-05-03 20:50 54.64134 -5.69508 6079 ft 276 kts 176°
2026-05-03 20:50 54.62260 -5.70211 6758 ft 281 kts 208°
2026-05-03 20:51 54.60707 -5.72232 7680 ft 282 kts 232°
2026-05-03 20:51 54.59927 -5.75300 8601 ft 282 kts 263°
2026-05-03 20:51 54.59677 -5.78629 9523 ft 287 kts 258°
2026-05-03 20:51 54.58872 -5.81814 10349 ft 297 kts 234°
2026-05-03 20:52 54.57272 -5.84237 10759 ft 321 kts 209°
2026-05-03 20:52 54.55144 -5.85702 11281 ft 337 kts 195°
2026-05-03 20:52 54.52823 -5.86460 12051 ft 344 kts 185°
2026-05-03 20:52 54.50406 -5.86379 12897 ft 350 kts 172°
2026-05-03 20:53 54.48034 -5.85367 13759 ft 355 kts 158°
2026-05-03 20:53 54.45848 -5.83378 14526 ft 358 kts 143°
2026-05-03 20:53 54.44027 -5.80441 15307 ft 361 kts 127°
2026-05-03 20:53 54.42748 -5.76739 16081 ft 363 kts 111°
2026-05-03 20:54 54.42133 -5.72539 16847 ft 365 kts 94°
2026-05-03 20:54 54.41562 -5.63860 18301 ft 374 kts 105°
2026-05-03 20:54 54.40586 -5.59642 18938 ft 378 kts 116°
2026-05-03 20:55 54.39336 -5.55711 19603 ft 381 kts 120°
2026-05-03 20:55 54.37885 -5.51808 20265 ft 385 kts 123°
2026-05-03 20:55 54.36355 -5.48022 20931 ft 388 kts 125°
2026-05-03 20:55 54.34799 -5.44301 21570 ft 391 kts 125°
2026-05-03 20:56 54.33204 -5.40511 22208 ft 394 kts 125°
2026-05-03 20:56 54.31603 -5.36686 22835 ft 396 kts 125°
2026-05-03 20:56 54.30001 -5.32826 23443 ft 399 kts 124°
2026-05-03 20:56 54.28397 -5.28935 23948 ft 402 kts 124°
2026-05-03 20:57 54.26725 -5.25077 24414 ft 405 kts 126°
2026-05-03 20:57 54.24962 -5.21285 24867 ft 408 kts 128°
2026-05-03 20:57 54.23149 -5.17524 25312 ft 411 kts 128°
2026-05-03 20:57 54.21302 -5.13747 25751 ft 414 kts 128°
2026-05-03 20:58 54.19443 -5.09956 26176 ft 417 kts 128°
2026-05-03 20:58 54.17576 -5.06137 26583 ft 420 kts 128°
2026-05-03 20:58 54.15702 -5.02289 26992 ft 423 kts 128°
2026-05-03 20:58 54.13841 -4.98457 27381 ft 426 kts 128°
2026-05-03 20:59 54.11923 -4.94504 27775 ft 429 kts 128°
2026-05-03 20:59 54.10040 -4.90624 28155 ft 431 kts 128°
2026-05-03 20:59 54.08120 -4.86670 28528 ft 434 kts 128°
2026-05-03 20:59 54.06190 -4.82703 28899 ft 437 kts 128°
2026-05-03 21:00 54.04255 -4.78702 29257 ft 439 kts 127°
2026-05-03 21:00 54.02972 -4.75943 29484 ft 441 kts 127°
2026-05-03 21:00 54.00496 -4.70435 29940 ft 444 kts 126°
2026-05-03 21:00 53.98636 -4.66227 30232 ft 447 kts 126°
2026-05-03 21:01 53.96765 -4.61985 30509 ft 449 kts 126°
2026-05-03 21:01 53.94883 -4.57733 30808 ft 450 kts 126°
2026-05-03 21:01 53.92997 -4.53494 31186 ft 450 kts 127°
2026-05-03 21:01 53.91106 -4.49268 31573 ft 449 kts 127°
2026-05-03 21:02 53.89219 -4.45064 31943 ft 448 kts 127°
2026-05-03 21:02 53.87332 -4.40861 32292 ft 448 kts 127°
2026-05-03 21:02 53.85497 -4.36590 32641 ft 447 kts 125°
2026-05-03 21:02 53.83713 -4.32272 32927 ft 449 kts 124°
2026-05-03 21:03 53.81958 -4.27949 32971 ft 438 kts 124°
2026-05-03 21:03 53.80262 -4.23748 32974 ft 429 kts 124°
2026-05-03 21:03 53.76900 -4.15467 32978 ft 426 kts 125°
2026-05-03 21:04 53.73549 -4.07302 32974 ft 425 kts 126°
2026-05-03 21:04 53.70162 -3.99108 32971 ft 425 kts 126°
2026-05-03 21:05 53.66776 -3.90949 32968 ft 424 kts 126°
2026-05-03 21:05 53.63381 -3.82797 32968 ft 424 kts 126°
2026-05-03 21:06 53.59986 -3.74674 32970 ft 423 kts 126°
2026-05-03 21:06 53.56591 -3.66575 32966 ft 423 kts 126°
2026-05-03 21:07 53.53196 -3.58502 32966 ft 423 kts 127°
2026-05-03 21:07 53.49799 -3.50449 32967 ft 423 kts 127°
2026-05-03 21:08 53.46628 -3.42117 32964 ft 424 kts 117°
2026-05-03 21:08 53.44166 -3.33120 32962 ft 425 kts 115°
2026-05-03 21:09 53.41861 -3.24052 32960 ft 425 kts 114°
2026-05-03 21:09 53.39485 -3.14993 32961 ft 423 kts 120°
2026-05-03 21:10 53.36264 -3.06782 32964 ft 421 kts 127°
2026-05-03 21:10 53.32784 -2.98876 32966 ft 421 kts 129°
2026-05-03 21:11 53.29261 -2.91071 32963 ft 421 kts 129°
2026-05-03 21:11 53.25692 -2.83163 32971 ft 433 kts 129°
2026-05-03 21:12 53.21999 -2.74966 32967 ft 449 kts 129°
2026-05-03 21:12 53.18213 -2.66567 32960 ft 461 kts 129°
2026-05-03 21:13 53.14351 -2.58029 32954 ft 461 kts 129°
2026-05-03 21:13 53.10683 -2.49266 32955 ft 461 kts 126°
2026-05-03 21:14 53.07081 -2.40438 32953 ft 460 kts 126°
2026-05-03 21:14 53.03367 -2.31799 32943 ft 457 kts 135°
2026-05-03 21:15 53.00989 -2.28344 32952 ft 453 kts 147°
2026-05-03 21:15 52.98371 -2.25453 32951 ft 452 kts 149°
2026-05-03 21:15 52.93040 -2.19913 32950 ft 452 kts 150°
2026-05-03 21:16 52.87717 -2.14382 32948 ft 451 kts 150°
2026-05-03 21:16 52.82399 -2.08849 32945 ft 451 kts 150°
2026-05-03 21:17 52.77987 -2.04263 32940 ft 451 kts 150°
2026-05-03 21:17 52.74481 -2.00624 32730 ft 445 kts 150°
2026-05-03 21:17 52.71864 -1.97912 31947 ft 445 kts 150°
2026-05-03 21:18 52.69226 -1.95184 31151 ft 446 kts 150°
2026-05-03 21:18 52.66605 -1.92476 30538 ft 443 kts 150°
2026-05-03 21:18 52.64003 -1.89791 29914 ft 439 kts 150°
2026-05-03 21:18 52.61425 -1.87134 29262 ft 434 kts 150°
2026-05-03 21:19 52.58881 -1.84517 28684 ft 428 kts 150°
2026-05-03 21:19 52.56373 -1.81940 28108 ft 423 kts 150°
2026-05-03 21:19 52.53886 -1.79388 27524 ft 419 kts 150°
2026-05-03 21:19 52.51426 -1.76869 26931 ft 415 kts 150°
2026-05-03 21:20 52.48991 -1.74378 26351 ft 411 kts 150°
2026-05-03 21:20 52.46571 -1.71905 25772 ft 408 kts 150°
2026-05-03 21:20 52.44171 -1.69456 25201 ft 405 kts 150°
2026-05-03 21:20 52.41779 -1.67019 24629 ft 403 kts 150°
2026-05-03 21:21 52.39404 -1.64601 24060 ft 400 kts 150°
2026-05-03 21:21 52.37044 -1.62203 23467 ft 399 kts 150°
2026-05-03 21:21 52.34685 -1.59808 22814 ft 396 kts 150°
2026-05-03 21:21 52.32352 -1.57442 22208 ft 393 kts 150°
2026-05-03 21:22 52.30076 -1.55136 21639 ft 389 kts 150°
2026-05-03 21:22 52.27782 -1.52816 21074 ft 385 kts 150°
2026-05-03 21:22 52.25517 -1.50527 20518 ft 381 kts 150°
2026-05-03 21:22 52.23281 -1.48270 20070 ft 374 kts 150°
2026-05-03 21:23 52.21176 -1.45884 19906 ft 362 kts 144°
2026-05-03 21:23 52.19258 -1.43305 19603 ft 354 kts 142°
2026-05-03 21:23 52.17394 -1.40704 19089 ft 352 kts 142°
2026-05-03 21:23 52.15555 -1.38124 18709 ft 347 kts 142°
2026-05-03 21:24 52.13736 -1.35576 18359 ft 343 kts 142°
2026-05-03 21:24 52.11925 -1.33048 17997 ft 342 kts 142°
2026-05-03 21:24 52.10118 -1.30530 17641 ft 341 kts 142°
2026-05-03 21:24 52.08316 -1.28024 17294 ft 340 kts 142°
2026-05-03 21:25 52.06547 -1.25566 16957 ft 338 kts 142°
2026-05-03 21:25 52.04759 -1.23086 16628 ft 336 kts 142°
2026-05-03 21:25 52.02984 -1.20626 16279 ft 335 kts 142°
2026-05-03 21:25 52.01216 -1.18178 15920 ft 333 kts 142°
2026-05-03 21:26 51.99455 -1.15743 15586 ft 331 kts 142°
2026-05-03 21:26 51.97703 -1.13324 15258 ft 330 kts 142°
2026-05-03 21:26 51.95962 -1.10921 14973 ft 328 kts 142°
2026-05-03 21:26 51.94223 -1.08524 14553 ft 328 kts 142°
2026-05-03 21:27 51.92489 -1.06135 14069 ft 326 kts 142°
2026-05-03 21:27 51.90770 -1.03770 13646 ft 323 kts 142°
2026-05-03 21:27 51.89063 -1.01423 13193 ft 320 kts 142°
2026-05-03 21:27 51.87373 -0.99102 12775 ft 318 kts 142°
2026-05-03 21:28 51.85725 -0.96715 12285 ft 319 kts 134°
2026-05-03 21:28 51.84871 -0.94789 12039 ft 318 kts 123°
2026-05-03 21:28 51.83825 -0.91628 11658 ft 318 kts 118°
2026-05-03 21:28 51.82855 -0.88421 11227 ft 317 kts 118°
2026-05-03 21:29 51.81582 -0.84182 10676 ft 314 kts 118°
2026-05-03 21:29 51.80935 -0.82043 10400 ft 313 kts 118°
2026-05-03 21:29 51.79979 -0.78899 9991 ft 311 kts 118°
2026-05-03 21:29 51.79032 -0.75797 9672 ft 304 kts 118°
2026-05-03 21:30 51.78113 -0.72797 9441 ft 293 kts 118°
2026-05-03 21:30 51.77215 -0.69873 8970 ft 291 kts 118°
2026-05-03 21:30 51.76320 -0.66969 8416 ft 292 kts 118°
2026-05-03 21:30 51.75419 -0.64049 8036 ft 288 kts 118°
2026-05-03 21:31 51.74541 -0.61203 7907 ft 279 kts 118°
2026-05-03 21:31 51.73678 -0.58409 7909 ft 279 kts 118°
2026-05-03 21:31 51.72792 -0.55614 7927 ft 279 kts 121°
2026-05-03 21:31 51.71740 -0.52988 7919 ft 279 kts 126°
2026-05-03 21:32 51.70618 -0.50445 7617 ft 278 kts 127°
2026-05-03 21:32 51.69482 -0.47917 7162 ft 278 kts 127°
2026-05-03 21:32 51.68361 -0.45426 6955 ft 273 kts 127°
2026-05-03 21:32 51.67244 -0.42942 6937 ft 274 kts 127°
2026-05-03 21:33 51.66129 -0.40458 6934 ft 274 kts 127°
2026-05-03 21:33 51.65010 -0.37967 6990 ft 274 kts 127°
2026-05-03 21:33 51.63926 -0.35550 6996 ft 257 kts 127°
2026-05-03 21:33 51.62907 -0.33280 6925 ft 244 kts 127°
2026-05-03 21:34 51.61918 -0.31104 6585 ft 240 kts 128°
2026-05-03 21:34 51.60931 -0.28992 6129 ft 239 kts 128°
2026-05-03 21:34 51.59927 -0.26861 5618 ft 238 kts 128°
2026-05-03 21:34 51.58927 -0.24743 5126 ft 237 kts 128°
2026-05-03 21:35 51.57935 -0.22626 4657 ft 236 kts 127°
2026-05-03 21:35 51.56959 -0.20509 4193 ft 235 kts 127°
2026-05-03 21:35 51.56008 -0.18434 3899 ft 226 kts 127°
2026-05-03 21:35 51.55099 -0.16449 3665 ft 214 kts 126°
2026-05-03 21:36 51.54238 -0.14571 3443 ft 210 kts 127°
2026-05-03 21:36 51.53159 -0.13036 3197 ft 207 kts 155°
2026-05-03 21:36 51.51763 -0.12587 3012 ft 205 kts 177°
2026-05-03 21:36 51.50331 -0.12561 2996 ft 205 kts 180°
2026-05-03 21:37 51.48910 -0.12694 2996 ft 205 kts 192°
2026-05-03 21:37 51.47600 -0.13552 2999 ft 204 kts 217°
2026-05-03 21:37 51.46642 -0.15215 3002 ft 203 kts 236°
2026-05-03 21:37 51.46305 -0.17286 2983 ft 186 kts 275°
2026-05-03 21:38 51.46463 -0.19246 2979 ft 170 kts 277°
2026-05-03 21:38 51.46554 -0.21107 2902 ft 167 kts 272°
2026-05-03 21:38 51.46560 -0.22968 2667 ft 167 kts 269°
2026-05-03 21:38 51.46549 -0.24821 2424 ft 166 kts 270°
2026-05-03 21:39 51.46544 -0.26664 2192 ft 165 kts 270°
2026-05-03 21:39 51.46540 -0.28482 1999 ft 159 kts 270°
2026-05-03 21:39 51.46535 -0.30182 1755 ft 149 kts 270°
2026-05-03 21:39 51.46532 -0.31760 1563 ft 135 kts 270°
2026-05-03 21:40 51.46531 -0.33222 1394 ft 129 kts 270°
2026-05-03 21:40 51.46518 -0.34682 1225 ft 129 kts 269°
2026-05-03 21:40 51.46509 -0.36106 1087 ft 130 kts 269°
2026-05-03 21:40 51.46513 -0.37554 886 ft 130 kts 269°
2026-05-03 21:41 51.46509 -0.39003 719 ft 130 kts 269°
2026-05-03 21:41 51.46509 -0.40446 520 ft 129 kts 268°
2026-05-03 21:41 51.46503 -0.41879 320 ft 128 kts 266°
2026-05-03 21:41 51.46497 -0.43298 157 ft 126 kts 267°
2026-05-03 21:42 51.46489 -0.44673 92 ft 113 kts 271°
2026-05-03 21:42 51.46487 -0.45537 92 ft 50 kts 269°
2026-05-03 21:42 51.46558 -0.45858 92 ft 19 kts 326°
2026-05-03 21:42 51.46587 -0.45890 89 ft 0 kts 326°
2026-05-03 21:43 51.46596 -0.45900 92 ft 9 kts 326°
2026-05-03 21:43 51.46659 -0.46023 92 ft 23 kts 273°
2026-05-03 21:43 51.46659 -0.46304 92 ft 26 kts 269°
2026-05-03 21:44 51.46658 -0.46592 93 ft 26 kts 269°
2026-05-03 21:44 51.46657 -0.46871 92 ft 24 kts 270°
2026-05-03 21:44 51.46656 -0.47146 93 ft 24 kts 270°
2026-05-03 21:44 51.46656 -0.47269 91 ft 8 kts 280°
2026-05-03 21:45 51.46705 -0.47351 91 ft 0 kts 341°
2026-05-03 21:45 51.46709 -0.47353 91 ft 1 kts 341°
2026-05-03 21:45 51.46710 -0.47354 91 ft 0 kts 341°
2026-05-03 21:47 51.46734 -0.47377 91 ft 12 kts 311°
2026-05-03 21:48 51.46744 -0.47580 90 ft 22 kts 270°
2026-05-03 21:48 51.46744 -0.47831 90 ft 23 kts 269°
2026-05-03 21:48 51.46742 -0.48088 90 ft 23 kts 269°
2026-05-03 21:48 51.46748 -0.48324 93 ft 15 kts 297°
2026-05-03 21:49 51.46840 -0.48358 91 ft 14 kts 353°
2026-05-03 21:49 51.46877 -0.48472 90 ft 13 kts 269°
2026-05-03 21:49 51.46876 -0.48619 90 ft 13 kts 270°
2026-05-03 21:49 51.46876 -0.48766 90 ft 12 kts 269°
2026-05-03 21:50 51.46890 -0.48862 91 ft 7 kts 342°
2026-05-03 21:50 51.46917 -0.48861 90 ft 3 kts 359°
2026-05-03 21:50 51.46927 -0.48861 91 ft 0 kts 359°